Location: Eastchurch
(51.4000°N, 0.8667°E)
Time: 05:56:25
(UTC+00:00)

IRS-1C - Pass Details

Date: 19 January 2026
Orbit: 813 x 814 km, 99.0° (Epoch: 18 February)

Event Time Altitude Azimuth Distance (km) Brightness Sun altitude
Rises 17:06:54 0° 152° (SSE) 3,328 7.3 -6.8°
Reaches altitude 10° 17:09:15 10° 150° (SSE) 2,400 6.5 -7.1°
Maximum altitude 17:14:30 65° 69° (ENE) 894 4.1 -7.8°
Drops below altitude 10° 17:19:47 10° 349° (N) 2,416 6.5 -8.6°
Sets 17:22:09 0° 347° (NNW) 3,352 7.2 -8.9°
